Meteo Giornale » Osservazioni meteo Italia » Pratica Di Mare

ore: 16:55 - Osservazioni Meteo Pratica Di Mare
Lat. 41° 39' N Lon. 12° 27' E Alt. 6 metri s.l.m.

poco_nuvoloso Europe/Rome

30 °C

Poco Nuvoloso

Temp. 24 Ore

20 °C

31 °C

Ovest

20.3 Km/h

Dew point 23 °C

Umidità 66 %

Visibilità  10 Km

Il sole sorge alle ore 06:18

Il sole tramonta alle ore 20:10

Data e Ora Cielo e Fenomeni T °C DP °C Um. % Pres. hPa Vis. km Vento km/h
Oggi h: 16:55 poco_nuvoloso Poco Nuvoloso 30 23 66 1012 10 O 20.3
Oggi h: 15:55 poco_nuvoloso Poco Nuvoloso 31 22 58 1012 10 O 20.3
Oggi h: 15:07 poco_nuvoloso Poco Nuvoloso 30 21 58 1013 10 O 20.3
Oggi h: 14:55 coperto_temporali Temporale 30 21 58 1013 10 O 20.3
Oggi h: 13:55 poco_nuvoloso Poco Nuvoloso 30 23 66 1013 10 O 16.7
Oggi h: 12:55 sereno Sereno 30 21 58 1013 10 O/SO 14.8
Oggi h: 11:55 sereno Sereno 30 21 58 1013 10 O/SO 11.1
Oggi h: 10:55 sereno Sereno 29 22 66 1013 10 N 3.7
Oggi h: 09:55 sereno Sereno 27 20 65 1013 10 E/NE 9.3
Oggi h: 08:55 sereno Sereno 23 19 78 1012 10 N/NE 18.5
Oggi h: 07:55 sereno Sereno 21 19 88 1012 10 N/NE 16.7
Oggi h: 06:55 nuvoloso Nuvoloso 20 19 93 1012 10 N/NE 22.2
Oggi h: 05:55 poco_nuvoloso Poco Nuvoloso 20 20 100 1013 10 N 5.5
Oggi h: 04:55 poco_nuvoloso Poco Nuvoloso 20 19 93 1013 10 N 3.7
Oggi h: 03:55 poco_nuvoloso Poco Nuvoloso 21 20 94 1013 10 N 3.7
Oggi h: 02:55 poco_nuvoloso Poco Nuvoloso 21 20 94 1013 10 N/NE 11.1
Oggi h: 01:55 poco_nuvoloso Poco Nuvoloso 21 20 94 1013 10 N/NE 11.1
Oggi h: 00:55 poco_nuvoloso Poco Nuvoloso 21 20 94 1013 10 N 5.5
Ieri h: 23:55 nuvoloso Nuvoloso 21 20 94 1013 10 N/NE 7.4
Ieri h: 21:55 nuvoloso Nuvoloso 21 20 94 1013 10 N/NE 9.3
Ieri h: 20:55 nuvoloso Nuvoloso 22 21 94 1013 10 NE 7.4
Ieri h: 19:55 coperto_pioggia Pioggia Debole 22 21 94 1012 10 NE 7.4
Ieri h: 18:55 nuvoloso Nuvoloso 22 21 94 1012 10 N/NO 7.4
Ieri h: 17:55 nuvoloso_temporali Temporale con Pioggia Debole 22 21 94 1012 10 N/NO 9.3